RAM1419 GCLP-GMML

Flight info

Callsign RAM1419
Flight time N/A
Altitude 15000
Route COST4A COSTI LAY
Aircraft AT76/M-SDE2E3FGHIRWXY/LB1

Departure

Time N/A
Airport Gran Canaria Airport (GCLP)

Arrival

Time 2026-04-26 17:50
Airport Laayoune Hassan I International Airport (GMML)
Time Latitude Longitude Altitude Speed Heading
2026-04-26 17:24 27.65059 -14.39431 15140 ft 284 kts 116°
2026-04-26 17:24 27.64231 -14.37404 15140 ft 284 kts 116°
2026-04-26 17:25 27.63393 -14.35384 15140 ft 284 kts 116°
2026-04-26 17:25 27.62548 -14.33375 15140 ft 284 kts 116°
2026-04-26 17:25 27.61711 -14.31392 15140 ft 284 kts 117°
2026-04-26 17:25 27.60860 -14.29372 15139 ft 284 kts 116°
2026-04-26 17:26 27.60021 -14.27341 15025 ft 288 kts 116°
2026-04-26 17:26 27.59170 -14.25273 14901 ft 291 kts 116°
2026-04-26 17:26 27.58302 -14.23202 14777 ft 293 kts 116°
2026-04-26 17:26 27.57430 -14.21135 14652 ft 293 kts 116°
2026-04-26 17:27 27.56549 -14.19054 14514 ft 293 kts 117°
2026-04-26 17:27 27.55679 -14.16988 14353 ft 291 kts 116°
2026-04-26 17:27 27.54826 -14.14930 14178 ft 290 kts 116°
2026-04-26 17:27 27.53987 -14.12904 14004 ft 288 kts 116°
2026-04-26 17:28 27.53128 -14.10859 13827 ft 287 kts 116°
2026-04-26 17:28 27.52275 -14.08837 13652 ft 285 kts 116°
2026-04-26 17:28 27.51423 -14.06823 13477 ft 285 kts 116°
2026-04-26 17:28 27.50576 -14.04800 13301 ft 284 kts 116°
2026-04-26 17:29 27.49740 -14.02788 13126 ft 284 kts 116°
2026-04-26 17:29 27.49464 -14.02129 13068 ft 283 kts 116°
2026-04-26 17:29 27.48050 -13.98771 12775 ft 283 kts 116°
2026-04-26 17:29 27.47212 -13.96776 12601 ft 282 kts 116°
2026-04-26 17:30 27.46376 -13.94776 12424 ft 281 kts 116°
2026-04-26 17:30 27.45550 -13.92790 12248 ft 279 kts 116°
2026-04-26 17:30 27.44730 -13.90820 12073 ft 278 kts 116°
2026-04-26 17:30 27.43909 -13.88856 11897 ft 276 kts 116°
2026-04-26 17:31 27.43084 -13.86912 11722 ft 275 kts 116°
2026-04-26 17:31 27.42537 -13.85620 11606 ft 275 kts 116°
2026-04-26 17:31 27.41721 -13.83681 11430 ft 274 kts 116°
2026-04-26 17:31 27.40631 -13.81089 11196 ft 274 kts 116°
2026-04-26 17:32 27.40093 -13.79810 11080 ft 272 kts 116°
2026-04-26 17:32 27.39282 -13.77887 10904 ft 270 kts 116°
2026-04-26 17:32 27.38227 -13.75391 10669 ft 264 kts 116°
2026-04-26 17:32 27.37699 -13.74140 10551 ft 262 kts 116°
2026-04-26 17:33 27.36912 -13.72299 10376 ft 259 kts 116°
2026-04-26 17:33 27.36124 -13.70481 10236 ft 257 kts 117°
2026-04-26 17:33 27.35337 -13.68700 10166 ft 252 kts 117°
2026-04-26 17:34 27.33760 -13.65190 9912 ft 252 kts 118°
2026-04-26 17:34 27.32966 -13.63425 9788 ft 253 kts 118°
2026-04-26 17:34 27.32184 -13.61687 9668 ft 252 kts 117°
2026-04-26 17:34 27.31382 -13.59907 9540 ft 251 kts 117°
2026-04-26 17:35 27.30612 -13.58168 9416 ft 251 kts 117°
2026-04-26 17:35 27.29840 -13.56413 9291 ft 250 kts 117°
2026-04-26 17:35 27.29066 -13.54659 9166 ft 250 kts 117°
2026-04-26 17:35 27.28285 -13.52914 9040 ft 250 kts 117°
2026-04-26 17:36 27.27505 -13.51156 8915 ft 250 kts 117°
2026-04-26 17:36 27.26728 -13.49421 8790 ft 250 kts 117°
2026-04-26 17:36 27.25932 -13.47670 8686 ft 249 kts 117°
2026-04-26 17:36 27.25153 -13.45933 8558 ft 250 kts 117°
2026-04-26 17:37 27.24380 -13.44205 8434 ft 250 kts 117°
2026-04-26 17:37 27.23607 -13.42473 8310 ft 250 kts 117°
2026-04-26 17:37 27.22710 -13.40782 8143 ft 251 kts 130°
2026-04-26 17:38 27.19620 -13.39492 8014 ft 240 kts 180°
2026-04-26 17:38 27.17943 -13.39534 7857 ft 242 kts 185°
2026-04-26 17:38 27.16249 -13.39635 7707 ft 244 kts 186°
2026-04-26 17:38 27.14546 -13.39755 7557 ft 246 kts 186°
2026-04-26 17:39 27.12839 -13.39882 7406 ft 247 kts 186°
2026-04-26 17:39 27.11125 -13.40012 7228 ft 247 kts 186°
2026-04-26 17:39 27.09427 -13.40143 7037 ft 247 kts 186°
2026-04-26 17:39 27.07689 -13.40281 6836 ft 248 kts 186°
2026-04-26 17:40 27.05983 -13.40421 6625 ft 249 kts 186°
2026-04-26 17:40 27.04819 -13.40519 6474 ft 249 kts 186°
2026-04-26 17:40 27.02545 -13.40716 6173 ft 246 kts 186°
2026-04-26 17:40 27.00822 -13.40871 5924 ft 245 kts 186°
2026-04-26 17:41 26.99140 -13.41030 5677 ft 245 kts 186°
2026-04-26 17:41 26.97442 -13.41198 5428 ft 244 kts 186°
2026-04-26 17:41 26.95758 -13.41371 5175 ft 242 kts 186°
2026-04-26 17:41 26.94091 -13.41551 4927 ft 240 kts 186°
2026-04-26 17:42 26.92453 -13.41323 4650 ft 234 kts 161°
2026-04-26 17:42 26.91139 -13.40344 4403 ft 225 kts 131°
2026-04-26 17:42 26.90495 -13.38836 4241 ft 211 kts 99°
2026-04-26 17:42 26.90662 -13.37267 4070 ft 199 kts 66°
2026-04-26 17:43 26.91389 -13.35994 3954 ft 192 kts 51°
2026-04-26 17:43 26.92150 -13.34761 3776 ft 193 kts 53°
2026-04-26 17:43 26.92898 -13.33515 3603 ft 192 kts 53°
2026-04-26 17:43 26.93636 -13.32287 3470 ft 187 kts 53°
2026-04-26 17:44 26.94349 -13.31096 3413 ft 180 kts 53°
2026-04-26 17:44 26.95035 -13.29959 3397 ft 172 kts 51°
2026-04-26 17:44 26.95908 -13.29129 3390 ft 162 kts 29°
2026-04-26 17:44 26.96936 -13.28704 3400 ft 152 kts 16°
2026-04-26 17:45 26.97923 -13.28431 3257 ft 142 kts 13°
2026-04-26 17:45 26.98861 -13.28158 3067 ft 137 kts 14°
2026-04-26 17:45 26.99731 -13.27876 3010 ft 125 kts 15°
2026-04-26 17:45 27.00532 -13.27614 2905 ft 118 kts 15°
2026-04-26 17:46 27.01338 -13.27356 2693 ft 122 kts 15°
2026-04-26 17:46 27.02158 -13.27089 2487 ft 123 kts 15°
2026-04-26 17:46 27.02972 -13.26824 2271 ft 120 kts 15°
2026-04-26 17:46 27.03767 -13.26571 2079 ft 117 kts 15°
2026-04-26 17:47 27.04538 -13.26316 1918 ft 114 kts 15°
2026-04-26 17:47 27.05037 -13.26151 1821 ft 112 kts 14°
2026-04-26 17:47 27.06024 -13.25826 1629 ft 110 kts 14°
2026-04-26 17:47 27.06758 -13.25589 1486 ft 110 kts 14°
2026-04-26 17:48 27.07502 -13.25343 1359 ft 112 kts 14°
2026-04-26 17:48 27.08265 -13.25097 1215 ft 115 kts 14°
2026-04-26 17:48 27.09021 -13.24848 1067 ft 115 kts 14°
2026-04-26 17:48 27.09788 -13.24598 912 ft 115 kts 14°
2026-04-26 17:49 27.10556 -13.24356 759 ft 113 kts 16°
2026-04-26 17:49 27.11304 -13.24132 606 ft 109 kts 15°
2026-04-26 17:49 27.12019 -13.23877 454 ft 107 kts 17°
2026-04-26 17:49 27.12729 -13.23643 295 ft 102 kts 15°
2026-04-26 17:50 27.13305 -13.23454 214 ft 71 kts 14°
2026-04-26 17:50 27.13676 -13.23338 214 ft 43 kts 17°
2026-04-26 17:50 27.13923 -13.23257 214 ft 29 kts 17°
2026-04-26 17:50 27.14088 -13.23202 214 ft 21 kts 16°
2026-04-26 17:51 27.14206 -13.23163 214 ft 15 kts 16°
2026-04-26 17:51 27.14293 -13.23134 214 ft 12 kts 17°
2026-04-26 17:51 27.14369 -13.23108 214 ft 11 kts 16°
2026-04-26 17:51 27.14446 -13.23083 214 ft 12 kts 16°
2026-04-26 17:52 27.14533 -13.23054 214 ft 14 kts 17°
2026-04-26 17:52 27.14628 -13.23023 214 ft 15 kts 15°
2026-04-26 17:52 27.14728 -13.22991 214 ft 15 kts 16°
2026-04-26 17:52 27.14829 -13.22957 214 ft 14 kts 17°
2026-04-26 17:53 27.14914 -13.22928 214 ft 13 kts 17°
2026-04-26 17:53 27.14953 -13.22869 214 ft 11 kts 105°
2026-04-26 17:53 27.14924 -13.22762 214 ft 18 kts 107°
2026-04-26 17:54 27.14841 -13.22443 214 ft 23 kts 107°
2026-04-26 17:54 27.14794 -13.22258 214 ft 26 kts 107°
2026-04-26 17:54 27.14775 -13.22085 214 ft 22 kts 77°
2026-04-26 17:54 27.14838 -13.21949 214 ft 19 kts 43°
2026-04-26 17:55 27.14945 -13.21869 214 ft 18 kts 32°
2026-04-26 17:55 27.15052 -13.21795 214 ft 18 kts 31°
2026-04-26 17:55 27.15156 -13.21725 214 ft 15 kts 33°
2026-04-26 17:55 27.15228 -13.21682 214 ft 9 kts 359°
2026-04-26 17:56 27.15277 -13.21723 214 ft 8 kts 337°
2026-04-26 17:56 27.15363 -13.21725 214 ft 6 kts 303°
2026-04-26 17:57 27.15365 -13.21729 214 ft 0 kts 296°